User: anonymous   Login
Location: Starry Hill Observatory
(46.8582°N, 122.3590°W)
Time: 10:21:28
(UTC-07:00)
Language:

Cosmos 1300 Rocket - Orbit

View from above orbital plane
View from above orbital plane
View from above satellite
View from above satellite

Ground track
Ground track

The orbit data is extracted from the following two-line orbital elements,

1 12786U 81082B   15183.68796312  .00000189  00000-0  19539-4 0  9992
2 12786 082.4901 281.9689 0019226 096.1897 264.1509 14.84484550828652
Epoch (UTC): 02 July 2015 16:30:40
Eccentricity: 0.0019226
inclination: 82.4901°
perigee height: 602 km
apogee height: 628 km
right ascension of ascending node: 281.9689°
argument of perigee: 96.1897°
revolutions per day: 14.84484550
mean anomaly at epoch: 264.1509°
orbit number at epoch: 82865

The dashed part of the orbit path shows where the satellite is in the earth's shadow,  

DLR